Regional Weather Roundup
Issued by NWS Kansas City/Pleasant Hill, MO

Home | Current Version | Previous Version | Text Only | Print | Product List | Glossary On
Versions: 1 2 3 4 5 6 7 8 9 10 11 12 13 14 15 16 17 18 19 20 21 22 23 24 25 26 27 28 29 30 31 32 33 34 35 36 37 38 39 40 41 42 43 44 45 46 47 48 49 50
000
ASUS43 KEAX 280610
RWREAX

WEATHER ROUNDUP FOR EASTERN KANSAS AND NORTHWEST MISSOURI
NATIONAL WEATHER SERVICE KANSAS CITY/PLEASANT HILL MO
100 AM CDT FRI JUL 28 2017

KSZ040-057-103>105-MOZ028-029-037-043-280700-
...KANSAS CITY METROPOLITAN AREA...

CITY           SKY/WX    TMP DP  RH WIND       PRES   REMARKS
K.C. INTL      CLEAR     73  70  90 N7        29.96S
6HR MIN TEMP:  73; 6HR MAX TEMP:  83;

K.C. DOWNTOWN  NOT AVBL
LEES SUMMIT    CLEAR     75  73  93 CALM      29.96S
6HR MIN TEMP:  75; 6HR MAX TEMP:  82;

OLATHE - IXD   CLEAR     73  71  93 N7        29.96F
6HR MIN TEMP:  73; 6HR MAX TEMP:  82;

OLATHE - OJC   CLEAR     75  72  90 N5        29.96S
6HR MIN TEMP:  74; 6HR MAX TEMP:  83;

LAWRENCE       CLEAR     75  70  84 N6        29.95F

$$

MOZ001>008-011>017-020>025-030>033-038>040-044>046-053-054-280700-
...NORTHERN AND CENTRAL MISSOURI...

CITY           SKY/WX    TMP DP  RH WIND       PRES   REMARKS
ST. JOSEPH     MOCLDY    72  68  87 N8        29.97F
6HR MIN TEMP:  72; 6HR MAX TEMP:  85;

MOSBY          MOCLDY    73  73 100 N5        29.96S
WARRENSBURG    CLEAR     72  70  94 CALM      29.94S
WHITEMAN AFB   PTCLDY    74  74 100 E3        29.93S
6HR MIN TEMP:  73; 6HR MAX TEMP:  82;

CLINTON        CLEAR     73  73 100 NE3       29.94S
SEDALIA        PTCLDY    76  75  97 NE6       29.95S
6HR MIN TEMP:  76; 6HR MAX TEMP:  83;

WARSAW         NOT AVBL
CHILLICOTHE      N/A     75  69  81 N6        29.97S
6HR MIN TEMP:  75; 6HR MAX TEMP:  86;

KIRKSVILLE     CLEAR     71  67  87 NE8       29.98S
6HR MIN TEMP:  70; 6HR MAX TEMP:  83;


$$

MOZ041-047>049-056>058-063>065-088>090-097-280700-
...EASTERN AND SOUTHERN MISSOURI...

CITY           SKY/WX    TMP DP  RH WIND       PRES   REMARKS
ST. LOUIS INTL MOCLDY    79  74  84 NW5       29.89S
6HR MIN TEMP:  78; 6HR MAX TEMP:  81;

SPIRIT OF STL  PTCLDY    76  76 100 W3        29.87F
COLUMBIA       CLOUDY    76  73  91 N5        29.93F
JEFFERSON CITY PTCLDY    77  75  93 N5        29.91F
ROLLA          PTCLDY    71  71 100 CALM      29.94F
OSAGE BEACH    MOCLDY    74  73  97 CALM      29.93F
SPRINGFIELD    CLOUDY    78  76  93 NE5       29.92F
BRANSON        CLOUDY    77  77 100 CALM      29.93F FOG
JOPLIN         TSTM      77  77 100 E5        29.92F FOG
WEST PLAINS    CLOUDY    76  74  93 CALM      29.93F

$$

IAZ060-094-KSZ022-034>040-054-083-096-NEZ052-066-093-280700-
...KANSAS...SOUTHEAST NEBRASKA AND IOWA...

CITY           SKY/WX    TMP DP  RH WIND       PRES   REMARKS
TOPEKA         PTCLDY    74  69  85 VRB3      29.96F
6HR MIN TEMP:  74; 6HR MAX TEMP:  85;

MANHATTAN      CLOUDY    73  66  78 N3        29.99F
EMPORIA        MOCLDY    75  70  84 N6        29.97S
CHANUTE        CLOUDY    79  75  87 N7        29.94S
WICHITA        MOCLDY    78  70  76 NE9       29.96F
OMAHA          CLOUDY    67  64  90 NW6       30.02R
LINCOLN        CLEAR     67  64  90 N3        30.03S
FALLS CITY     PTCLDY    71  64  78 N5        29.99S
LAMONI         CLEAR     70  62  76 NE6       30.00F
DES MOINES     CLOUDY    73  62  68 CALM      30.00S

$$




USA.gov is the U.S. government's official web portal to all federal, state and local government web resources and services.